Météo par heure à Kysna

Ce jour, 4 Août, Mercredi

Heure Température Précipitation Vent Pression Humidité
00:00 +20°C° 0.2 mm 1 m/s 745 mmHg 84%
01:00 +20°C° 0 mm 1 m/s 745 mmHg 86%
02:00 +19°C° 0 mm 1 m/s 745 mmHg 88%
03:00 +18°C° 0 mm 2 m/s 745 mmHg 88%
04:00 +19°C° 0 mm 2 m/s 745 mmHg 86%
05:00 +20°C° 0 mm 2 m/s 745 mmHg 84%
06:00 +20°C° 0 mm 2 m/s 745 mmHg 82%
07:00 +23°C° 0 mm 2 m/s 745 mmHg 77%
08:00 +25°C° 0 mm 1 m/s 745 mmHg 71%
09:00 +26°C° 0 mm 2 m/s 745 mmHg 67%
10:00 +26°C° 0.2 mm 2 m/s 745 mmHg 66%
11:00 +27°C° 0.2 mm 3 m/s 745 mmHg 66%
12:00 +27°C° 0.2 mm 4 m/s 746 mmHg 65%
13:00 +26°C° 0.2 mm 4 m/s 746 mmHg 65%
14:00 +26°C° 0.2 mm 5 m/s 746 mmHg 65%
15:00 +26°C° 0 mm 5 m/s 745 mmHg 66%
16:00 +25°C° 0.2 mm 5 m/s 745 mmHg 71%
17:00 +22°C° 0.2 mm 5 m/s 746 mmHg 77%
18:00 +21°C° 0.2 mm 4 m/s 746 mmHg 83%
19:00 +20°C° 0 mm 4 m/s 746 mmHg 87%
20:00 +19°C° 0 mm 3 m/s 746 mmHg 91%
21:00 +17°C° 0 mm 3 m/s 746 mmHg 95%
22:00 +17°C° 0 mm 2 m/s 746 mmHg 94%
23:00 +17°C° 0 mm 2 m/s 746 mmHg 93%

Demain, 5 Août, Jeudi

Heure Température Précipitation Vent Pression Humidité
00:00 +17°C° 0 mm 2 m/s 746 mmHg 93%
01:00 +17°C° 0 mm 2 m/s 746 mmHg 90%
02:00 +17°C° 0 mm 2 m/s 747 mmHg 87%
03:00 +17°C° 0 mm 2 m/s 747 mmHg 85%
04:00 +17°C° 0 mm 2 m/s 747 mmHg 83%
05:00 +17°C° 0 mm 2 m/s 747 mmHg 82%
06:00 +17°C° 0 mm 2 m/s 748 mmHg 81%
07:00 +18°C° 0 mm 3 m/s 748 mmHg 76%
08:00 +19°C° 0 mm 3 m/s 748 mmHg 71%
09:00 +20°C° 0 mm 4 m/s 748 mmHg 65%
10:00 +22°C° 0 mm 4 m/s 748 mmHg 59%
11:00 +23°C° 0 mm 4 m/s 748 mmHg 52%
12:00 +25°C° 0 mm 4 m/s 748 mmHg 45%
13:00 +25°C° 0 mm 4 m/s 748 mmHg 45%
14:00 +23°C° 0 mm 4 m/s 749 mmHg 46%
15:00 +23°C° 0 mm 4 m/s 749 mmHg 46%
16:00 +22°C° 0 mm 4 m/s 749 mmHg 47%
17:00 +22°C° 0 mm 3 m/s 749 mmHg 49%
18:00 +21°C° 0 mm 3 m/s 749 mmHg 50%
19:00 +20°C° 0 mm 3 m/s 749 mmHg 54%
20:00 +18°C° 0 mm 3 m/s 749 mmHg 58%
21:00 +16°C° 0 mm 3 m/s 749 mmHg 62%
22:00 +14°C° 0 mm 3 m/s 749 mmHg 64%
23:00 +15°C° 0 mm 2 m/s 749 mmHg 66%

Après-demain, 6 Août, Vendredi

Heure Température Précipitation Vent Pression Humidité
00:00 +14°C° 0 mm 2 m/s 750 mmHg 68%
01:00 +13°C° 0 mm 2 m/s 750 mmHg 68%
02:00 +13°C° 0 mm 2 m/s 750 mmHg 69%
03:00 +13°C° 0 mm 2 m/s 750 mmHg 69%
04:00 +13°C° 0 mm 2 m/s 750 mmHg 67%
05:00 +14°C° 0 mm 2 m/s 750 mmHg 65%
06:00 +15°C° 0 mm 1 m/s 750 mmHg 62%
07:00 +17°C° 0 mm 2 m/s 751 mmHg 56%
08:00 +19°C° 0 mm 2 m/s 751 mmHg 50%
09:00 +23°C° 0 mm 2 m/s 751 mmHg 43%
10:00 +23°C° 0 mm 2 m/s 751 mmHg 40%
11:00 +24°C° 0 mm 2 m/s 751 mmHg 37%
12:00 +25°C° 0 mm 2 m/s 751 mmHg 34%
13:00 +25°C° 0 mm 2 m/s 751 mmHg 34%
14:00 +25°C° 0 mm 2 m/s 750 mmHg 33%
15:00 +26°C° 0 mm 2 m/s 750 mmHg 33%
16:00 +25°C° 0 mm 2 m/s 750 mmHg 38%
17:00 +24°C° 0 mm 2 m/s 750 mmHg 43%
18:00 +23°C° 0 mm 2 m/s 750 mmHg 48%
19:00 +21°C° 0 mm 2 m/s 750 mmHg 49%
20:00 +20°C° 0 mm 2 m/s 750 mmHg 49%
21:00 +20°C° 0 mm 1 m/s 750 mmHg 50%
22:00 +19°C° 0 mm 2 m/s 750 mmHg 52%
23:00 +18°C° 0 mm 2 m/s 750 mmHg 54%

7 Août, Samedi

Heure Température Précipitation Vent Pression Humidité
00:00 +18°C° 0 mm 2 m/s 750 mmHg 55%
01:00 +17°C° 0.1 mm 3 m/s 750 mmHg 60%
02:00 +17°C° 0.1 mm 3 m/s 750 mmHg 65%
03:00 +16°C° 0.1 mm 3 m/s 751 mmHg 69%
04:00 +15°C° 0.1 mm 4 m/s 751 mmHg 72%
05:00 +15°C° 0.1 mm 4 m/s 751 mmHg 74%
06:00 +14°C° 0.1 mm 4 m/s 751 mmHg 77%
07:00 +15°C° 0 mm 4 m/s 751 mmHg 75%
08:00 +15°C° 0 mm 4 m/s 751 mmHg 74%
09:00 +17°C° 0 mm 3 m/s 752 mmHg 72%
10:00 +17°C° 0 mm 3 m/s 752 mmHg 71%
11:00 +17°C° 0 mm 3 m/s 751 mmHg 70%
12:00 +18°C° 0 mm 3 m/s 751 mmHg 69%
13:00 +18°C° 0 mm 4 m/s 751 mmHg 71%
14:00 +17°C° 0 mm 4 m/s 751 mmHg 73%
15:00 +16°C° 0 mm 5 m/s 751 mmHg 74%
16:00 +16°C° 0 mm 5 m/s 751 mmHg 76%
17:00 +16°C° 0 mm 5 m/s 751 mmHg 78%
18:00 +16°C° 0 mm 5 m/s 751 mmHg 79%
19:00 +15°C° 0 mm 4 m/s 751 mmHg 82%
20:00 +14°C° 0 mm 4 m/s 751 mmHg 85%
21:00 +13°C° 0 mm 4 m/s 751 mmHg 88%
22:00 +13°C° 0 mm 3 m/s 751 mmHg 85%
23:00 +14°C° 0 mm 3 m/s 751 mmHg 83%

8 Août, Dimanche

Heure Température Précipitation Vent Pression Humidité
00:00 +14°C° 0 mm 3 m/s 751 mmHg 81%
01:00 +14°C° 0 mm 3 m/s 751 mmHg 78%
02:00 +14°C° 0 mm 3 m/s 751 mmHg 75%
03:00 +14°C° 0 mm 3 m/s 751 mmHg 72%
04:00 +16°C° 0 mm 3 m/s 751 mmHg 70%
05:00 +16°C° 0 mm 3 m/s 751 mmHg 68%
06:00 +16°C° 0 mm 3 m/s 751 mmHg 67%
07:00 +18°C° 0 mm 3 m/s 751 mmHg 62%
08:00 +20°C° 0 mm 3 m/s 751 mmHg 57%
09:00 +22°C° 0 mm 3 m/s 751 mmHg 52%
10:00 +25°C° 0 mm 3 m/s 751 mmHg 46%
11:00 +27°C° 0 mm 3 m/s 751 mmHg 40%
12:00 +30°C° 0 mm 3 m/s 751 mmHg 35%
13:00 +31°C° 0 mm 2 m/s 750 mmHg 32%
14:00 +31°C° 0 mm 2 m/s 750 mmHg 30%
15:00 +32°C° 0 mm 2 m/s 750 mmHg 28%
16:00 +31°C° 0 mm 2 m/s 749 mmHg 33%
17:00 +30°C° 0 mm 2 m/s 749 mmHg 39%
18:00 +28°C° 0 mm 3 m/s 749 mmHg 44%
19:00 +26°C° 0 mm 3 m/s 749 mmHg 48%
20:00 +24°C° 0 mm 3 m/s 749 mmHg 52%
21:00 +21°C° 0 mm 3 m/s 749 mmHg 55%
22:00 +21°C° 0 mm 3 m/s 749 mmHg 54%
23:00 +21°C° 0 mm 3 m/s 748 mmHg 53%

9 Août, Lundi

Heure Température Précipitation Vent Pression Humidité
00:00 +21°C° 0 mm 3 m/s 748 mmHg 51%
01:00 +21°C° 0 mm 3 m/s 748 mmHg 52%
02:00 +21°C° 0 mm 2 m/s 748 mmHg 52%
03:00 +20°C° 0 mm 2 m/s 748 mmHg 53%
04:00 +21°C° 0 mm 2 m/s 748 mmHg 53%
05:00 +21°C° 0 mm 2 m/s 748 mmHg 54%
06:00 +23°C° 0 mm 2 m/s 747 mmHg 54%
07:00 +24°C° 0 mm 2 m/s 747 mmHg 53%
08:00 +25°C° 0 mm 2 m/s 748 mmHg 52%
09:00 +25°C° 0 mm 3 m/s 748 mmHg 51%
10:00 +28°C° 0 mm 3 m/s 747 mmHg 45%
11:00 +30°C° 0 mm 4 m/s 747 mmHg 38%
12:00 +33°C° 0 mm 5 m/s 747 mmHg 31%
13:00 +34°C° 0 mm 5 m/s 747 mmHg 32%
14:00 +34°C° 0 mm 5 m/s 746 mmHg 32%
15:00 +34°C° 0 mm 5 m/s 746 mmHg 32%
16:00 +32°C° 0 mm 5 m/s 746 mmHg 38%
17:00 +30°C° 0 mm 4 m/s 746 mmHg 43%
18:00 +28°C° 0 mm 4 m/s 746 mmHg 49%
19:00 +26°C° 0 mm 4 m/s 746 mmHg 56%
20:00 +24°C° 0 mm 3 m/s 746 mmHg 63%
21:00 +20°C° 0 mm 3 m/s 746 mmHg 70%
22:00 +20°C° 0 mm 3 m/s 746 mmHg 69%
23:00 +20°C° 0 mm 2 m/s 746 mmHg 68%
Voir plus

Nous avons besoin de votre consentement

Meteoprog et ses fournisseurs de services peuvent stocker et accéder à des données personnelles telles que des cookies, des identifiants d'appareils ou d'autres technologies similaires sur votre appareil et traiter ces données pour personnaliser le contenu et les publicités, ainsi que pour fournir des fonctionnalités de médias sociaux et analyser le trafic.

  • Stocker et/ou accéder à des informations sur votre appareil

    Des cookies, des identifiants d'appareils ou d'autres informations peuvent être stockés ou accessibles sur votre appareil aux fins indiquées ci-dessus.

  • Annonces et contenus personnalisés, mesure des annonces et des contenus, connaissance de l'audience et développement de produits

    Les annonces et le contenu peuvent être personnalisés en fonction d'un profil. D'autres données peuvent être ajoutées pour mieux personnaliser les annonces et le contenu. Les performances des publicités et du contenu peuvent être mesurées. Il est possible d'obtenir des informations sur le public qui a vu les publicités et le contenu. Ces données peuvent être utilisées pour développer ou améliorer l'expérience de l'utilisateur, les systèmes et les logiciels.

En cliquant sur "J'accepte", vous autorisez l'utilisation de cookies, des identifiants d'appareils, des balises web ou d'autres technologies similaires. Vos paramètres peuvent être modifiés dans le navigateur de votre appareil.

Dans certains cas, des intérêts légitimes peuvent être invoqués plutôt qu'un consentement. Vous pouvez en savoir plus à ce sujet dans notre Politique de confidentialité et de cookies.